Погода в Камышине

Погода в Камышине : погода сейчас, прогноз погоды и архив. Всё, что Вы хотите узнать о погоде в Камышине!

Хотите узнать прогноз погоды в Камышине? Тогда Вам сюда: Погода в Камышине

Поиск расширенной информации на нашем сайте:

Другие новости

Новости СМИ2

Главная страница сайта

Новости сайта

03.07.2017

Напоминаем, что на нашем специализированном сайте Метеоцентр.Азия вы можете получить высокодетализированные автоматические прогнозы погоды по пунктам России, СНГ и мира в авиационном формате (включающие направление и скорость ветра, видимость, явления погоды, количество и форму облачности, нижнюю и верхнюю границу облачности).

Рекомендуем: Навгеотех - геодезическое оборудование: GPS приемники, тахеометры, нивелиры, теодолиты, рулетки..

Погода в Камышине - сегодня

Время (UTC), дата Ветер
(°,м/с) 
Видим.   Явления Облачность Т
(°С)
Тd
(°С)
f(%) Тe
(°С)
Pmin
(гПа)
dP
(гПа)
Po
(мм)
O2
(г/м3)
Тmin Tmax R s Состояние
почвы
06 14.08.18 340 (С) 20000 м    6/0 средняя, верхняя 
[Ac cast|Ci sp]
+26.1 +10.6 38 +28  1013.8  750  274           
09 14.08.18 290 (З) 20000 м    5/4 1000 м верхняя 
[Cu hum|Ci fib]
+27.9 +8.1 29 +28  1013.7  0.1  750  273           
18 14.08.18 350 (С) 20000 м    ясно 
+22.1 +7 38 +22  1016.1  1.8  751  279           
21 14.08.18 020 (С) 20000 м    ясно 
+19.6 +8 47 +21  1017  0.8  752  281           
00 15.08.18 340 (С) 20000 м    ясно 
+18.7 +9.6 55 +21  1018.3  1.2  753  282           
06 15.08.18 060 (СВ) 20000 м    ясно 
+23.1 +11.7 49 +26  1019.7  0.7  754  278           
09 15.08.18 070 (В) 20000 м    3/3 1000 м 
[Cu hum]
+26.1 +7.5 31 +26  1019.4  -0.2  754  276           
12 15.08.18 090 (В) 20000 м    3/3 1000 м 
[Cu hum]
+26.7 +8.2 31 +27  1018.8  -0.6  754  275           
15 15.08.18 тихо ()   20000 м    ясно 
+26 +7.3 30 +26  1018.5  -0.3  753  276    +27.1       
18 15.08.18 тихо ()   20000 м    ясно 
+24.1 +7.7 35 +24  1018.6  753  278           
21 15.08.18 тихо ()   20000 м    ясно 
+21.6 +7.1 39 +22  1018.8  753  280           
00 16.08.18 тихо ()   20000 м    ясно 
+19.6 +9.1 51 +20  1019.1  0.3  754  282           
06 16.08.18 140 (ЮВ) 20000 м    ясно 
+25 +6.9 31 +25  1019  0.2  754  277           
09 16.08.18 140 (ЮВ) 20000 м    ясно 
+29 +5.8 23 +29  1018.2  -0.5  753  273           
12 16.08.18 180 (Ю) 20000 м    ясно 
+30.7 +3 17 +31  1016.9  -1.2  752  272           
15 16.08.18 тихо ()   20000 м    ясно 
+29.9 +1.1 16 +30  1016  -0.9  752  273    +30.9       
18 16.08.18 060 (СВ) 20000 м    ясно 
+27.1 +4.9 24 +27  1016.4  0.2  752  275           
21 16.08.18 тихо ()   20000 м    ясно 
+24.7 +6.5 31 +25  1016.1  -0.4  751  277           
00 17.08.18 тихо ()   20000 м    ясно 
+21.5 +13.3 60 +27  1015.9  -0.3  751  278           
06 17.08.18 тихо ()   10 км    1/0 верхняя 
[Ci sp]
+29.1 +7.9 26 +29  1015.5  0.1  751  272           
09 17.08.18 030 (СВ) 20000 м    3/0 средняя, верхняя 
[Ac cast|Ci sp]
+31.6 +4 17 +32  1014.6  -0.7  751  270           
12 17.08.18 090 (В) 20000 м    3/3 1500 м верхняя 
[Cu med, cong|Ci sp]
+32.4 +4.1 17 +32  1013.5  -1.1  750  269           
18 17.08.18 020 (С) 6{10}  20000 м    6/0 средняя, верхняя 
[Ac trans|Ci fib]
+22 +15 64 +31  1015.8  1.9  751  277           
06 18.08.18 050 (СВ) 7-11{11}  20000 м    ясно 
+20.2 +6.8 42 +20  1018.5  1.3  753  281           
09 18.08.18 030 (СВ) 7-10{11}  20000 м    ясно 
+22.7 +3.7 29 +23  1018.3  0.1  753  280           
Время (UTC), дата Ветер
(°,м/с) 
Видим.   Явления Облачность Т
(°С)
Тd
(°С)
f(%) Тe
(°С)
Pmin
(гПа)
dP
(гПа)
Po
(мм)
O2
(г/м3)
Тmin Tmax R s Состояние
почвы

Для получения пояснительной информации подведите курсор к названию столбца.

ПОГОДА в Камышине - архив

Всё, что Вы хотите узнать о погоде в Камышине - удобно и подробно!

Выберите нужную дату (начиная с 1 января 2015* года) и нажмите кнопку "Найти".
Будут отображены архивные сводки погоды по пункту Камышин, начиная с указанной даты.


Отображать данные в формате CSV (для использования в таблицах Excel)


Внимание! Наш архив погоды предназначен исключительно для личного некоммерческого использования в познавательных целях. Если Вам необходимы официальные справки о состоянии погоды (для производственных, юридических, коммерческих и т.п. целей), обращайтесь в органы Росгидромета.

*Примечание: данная дата относится к архиву по метеостанциям СССР (Россия, СНГ, Балтия).
Архив по метеостанциям Зарубежной Европы и Азии (кроме Китая) хранится 10 дней, по другим регионам земного шара (Китай, Африка, Америка, Австралия, Океания) - 1 день.

Камышин - район местоположения метеостанции


Название, широта, долгота, высота метеостанции:
Камышин 50.1°ш. 45.4°д. 119 м над ур. моря [Российская Федерация]

Дополнительная информация

В oтличие oт бoльшинства пoгoдных сайтoв мы публикуем пoдрoбную метеoинфoрмацию в детальнoм прoфессиoнальнoм фoрмате.

Характеристики температуры и влажнoсти вoздуха измеряются на высoте 2 м в тени вдали oт зданий и деревьев.
Скoрoсть ветра измеряется на высoте 10 м (на урoвне рoста челoвека скoрoсть ветра ниже в 1.5-2 раза). Если метеoстанция нахoдится в гoрoде или в лесу, тo скoрoсть ветра занижена на 2-4 м/с пo сравнению с oткрытым местoм. Скoрoсть ветра над акватoриями крупных рек и oзёр, а также на вершинах хoлмoв на 2-5 м/с выше, чем в oбычных услoвиях.
Атмoсфернoе давление в разных тoчках местнoсти мoжет значительнo oтличаться oт давления на метеoстанции, в зависимoсти oт услoвий рельефа (при пoдъёме на 10 м давление пoнижается примернo на 1 мм рт.ст.).